Time,TemperatureF,DewpointF,PressureIn,WindDirection,WindDirectionDegrees,WindSpeedMPH,WindSpeedGustMPH,Humidity,HourlyPrecipIn,Conditions,Clouds,dailyrainin,SoftwareType,DateUTC
2013-07-11 00:01:00,79.0,61.0,30.00,SE,134,8.0,12.0,55,0.00,,,0.02,,2013-07-11 05:01:00,
2013-07-11 00:12:00,79.0,62.0,30.01,SE,137,1.0,9.0,57,0.00,,,0.02,,2013-07-11 05:12:00,
2013-07-11 00:22:00,78.0,62.0,30.01,SE,134,1.0,4.0,59,0.00,,,0.02,,2013-07-11 05:22:00,
2013-07-11 00:32:00,78.0,62.0,30.01,SE,134,1.0,4.0,59,0.00,,,0.02,,2013-07-11 05:32:00,
2013-07-11 00:43:00,77.0,63.0,30.01,SE,140,0.0,0.0,61,0.00,,,0.00,,2013-07-11 05:43:00,
2013-07-11 00:52:00,76.0,62.0,30.02,SE,141,1.0,3.0,62,0.00,,,0.00,,2013-07-11 05:52:00,
2013-07-11 01:01:00,76.0,62.0,30.02,SE,141,1.0,3.0,62,0.00,,,0.00,,2013-07-11 06:01:00,
2013-07-11 01:11:00,76.0,62.0,30.01,SSE,147,0.0,4.0,63,0.00,,,0.00,,2013-07-11 06:11:00,
2013-07-11 01:22:00,75.0,62.0,30.01,SE,145,0.0,3.0,64,0.00,,,0.00,,2013-07-11 06:22:00,
2013-07-11 01:32:00,75.0,62.0,30.01,SE,145,0.0,3.0,64,0.00,,,0.00,,2013-07-11 06:32:00,
2013-07-11 01:43:00,75.0,63.0,30.01,SE,146,2.0,4.0,66,0.00,,,0.00,,2013-07-11 06:43:00,
2013-07-11 01:52:00,74.0,62.0,30.01,SSE,147,0.0,4.0,67,0.00,,,0.00,,2013-07-11 06:52:00,
2013-07-11 02:01:00,74.0,62.0,30.01,SSE,147,0.0,4.0,67,0.00,,,0.00,,2013-07-11 07:01:00,
2013-07-11 02:12:00,74.0,62.0,30.01,SSE,148,4.0,9.0,67,0.00,,,0.00,,2013-07-11 07:12:00,
2013-07-11 02:22:00,75.0,62.0,30.01,SE,146,1.0,3.0,65,0.00,,,0.00,,2013-07-11 07:22:00,
2013-07-11 02:32:00,75.0,62.0,30.01,SE,146,1.0,3.0,65,0.00,,,0.00,,2013-07-11 07:32:00,
2013-07-11 02:45:00,74.0,62.0,30.01,SSE,147,0.0,0.0,67,0.00,,,0.00,,2013-07-11 07:45:00,
2013-07-11 02:53:00,74.0,63.0,30.01,SE,146,0.0,0.0,69,0.00,,,0.00,,2013-07-11 07:53:00,
2013-07-11 03:02:00,74.0,63.0,30.01,SE,146,0.0,0.0,69,0.00,,,0.00,,2013-07-11 08:02:00,
2013-07-11 03:11:00,73.0,63.0,30.00,SE,137,3.0,5.0,70,0.00,,,0.00,,2013-07-11 08:11:00,
2013-07-11 03:22:00,74.0,63.0,30.01,SE,140,2.0,10.0,69,0.00,,,0.00,,2013-07-11 08:22:00,
2013-07-11 03:34:00,74.0,63.0,30.01,SE,140,2.0,10.0,69,0.00,,,0.00,,2013-07-11 08:34:00,
2013-07-11 03:43:00,74.0,63.0,30.00,SE,130,0.0,4.0,68,0.00,,,0.00,,2013-07-11 08:43:00,
2013-07-11 03:53:00,74.0,63.0,30.00,SE,143,0.0,4.0,69,0.00,,,0.00,,2013-07-11 08:53:00,
2013-07-11 04:02:00,74.0,63.0,30.00,SE,143,0.0,4.0,69,0.00,,,0.00,,2013-07-11 09:02:00,
2013-07-11 04:12:00,74.0,63.0,30.00,SSE,147,0.0,4.0,69,0.00,,,0.00,,2013-07-11 09:12:00,
2013-07-11 04:21:00,74.0,63.0,30.00,ENE,74,0.0,4.0,69,0.00,,,0.00,,2013-07-11 09:21:00,
2013-07-11 04:33:00,74.0,63.0,30.00,ENE,74,0.0,4.0,69,0.00,,,0.00,,2013-07-11 09:33:00,
2013-07-11 04:43:00,74.0,63.0,30.00,SE,135,4.0,5.0,69,0.00,,,0.00,,2013-07-11 09:43:00,
2013-07-11 04:53:00,74.0,64.0,30.00,SE,140,1.0,7.0,70,0.00,,,0.00,,2013-07-11 09:53:00,
2013-07-11 05:01:00,74.0,64.0,30.00,SE,140,1.0,7.0,70,0.00,,,0.00,,2013-07-11 10:01:00,
2013-07-11 05:12:00,74.0,64.0,29.99,SE,138,3.0,7.0,71,0.00,,,0.00,,2013-07-11 10:12:00,
2013-07-11 05:21:00,73.0,63.0,29.99,ESE,117,6.0,10.0,72,0.00,,,0.00,,2013-07-11 10:21:00,
2013-07-11 05:33:00,73.0,63.0,29.99,ESE,117,6.0,10.0,72,0.00,,,0.00,,2013-07-11 10:33:00,
2013-07-11 05:42:00,73.0,63.0,29.99,SE,142,9.0,11.0,71,0.00,,,0.00,,2013-07-11 10:42:00,
2013-07-11 05:52:00,73.0,63.0,29.99,SE,136,0.0,8.0,72,0.00,,,0.00,,2013-07-11 10:52:00,
2013-07-11 06:02:00,73.0,63.0,29.99,SE,136,0.0,8.0,72,0.00,,,0.00,,2013-07-11 11:02:00,
2013-07-11 06:12:00,73.0,64.0,30.00,SE,145,3.0,9.0,73,0.00,,,0.00,,2013-07-11 11:12:00,
2013-07-11 06:22:00,71.0,65.0,30.03,WNW,303,1.0,4.0,81,0.06,,,0.06,,2013-07-11 11:22:00,
2013-07-11 06:32:00,71.0,65.0,30.03,WNW,303,1.0,4.0,81,0.06,,,0.06,,2013-07-11 11:32:00,
2013-07-11 06:43:00,68.0,64.0,30.06,SSE,152,1.0,7.0,87,0.15,,,0.15,,2013-07-11 11:43:00,
2013-07-11 06:53:00,69.0,66.0,30.03,East,100,0.0,16.0,90,0.29,,,0.29,,2013-07-11 11:53:00,
2013-07-11 07:01:00,69.0,66.0,30.03,East,100,0.0,16.0,90,0.29,,,0.29,,2013-07-11 12:01:00,
2013-07-11 07:12:00,67.0,64.0,30.03,SSE,167,0.0,6.0,91,0.53,,,0.53,,2013-07-11 12:12:00,
2013-07-11 07:22:00,67.0,65.0,30.03,ESE,121,0.0,5.0,92,0.88,,,0.94,,2013-07-11 12:22:00,
2013-07-11 07:33:00,67.0,65.0,30.03,ESE,121,0.0,5.0,92,0.88,,,0.94,,2013-07-11 12:33:00,
2013-07-11 07:43:00,67.0,65.0,30.03,NNE,32,0.0,4.0,93,0.80,,,0.95,,2013-07-11 12:43:00,
2013-07-11 07:54:00,67.0,65.0,30.03,SE,146,0.0,5.0,93,0.69,,,0.97,,2013-07-11 12:54:00,
2013-07-11 08:02:00,67.0,65.0,30.03,SE,146,0.0,5.0,93,0.69,,,0.97,,2013-07-11 13:02:00,
2013-07-11 08:13:00,67.0,65.0,30.06,NE,51,0.0,7.0,93,0.49,,,1.01,,2013-07-11 13:13:00,
2013-07-11 08:22:00,67.0,65.0,30.06,ESE,114,2.0,10.0,93,0.09,,,1.03,,2013-07-11 13:22:00,
2013-07-11 08:45:00,67.0,65.0,30.06,SSW,198,2.0,9.0,93,0.12,,,1.07,,2013-07-11 13:45:00,
2013-07-11 08:53:00,67.0,65.0,30.07,NNE,28,0.0,6.0,93,0.16,,,1.13,,2013-07-11 13:53:00,
2013-07-11 09:04:00,67.0,65.0,30.07,NNE,28,0.0,6.0,93,0.16,,,1.13,,2013-07-11 14:04:00,
2013-07-11 09:14:00,67.0,65.0,30.08,SE,132,6.0,10.0,93,0.22,,,1.23,,2013-07-11 14:14:00,
2013-07-11 09:23:00,67.0,65.0,30.11,NNW,348,9.0,18.0,93,0.32,,,1.34,,2013-07-11 14:23:00,
2013-07-11 09:35:00,67.0,65.0,30.11,NNW,348,9.0,18.0,93,0.32,,,1.34,,2013-07-11 14:35:00,
2013-07-11 09:45:00,67.0,65.0,30.13,WNW,294,6.0,15.0,93,0.37,,,1.44,,2013-07-11 14:45:00,
2013-07-11 09:53:00,67.0,65.0,30.12,South,187,0.0,11.0,93,0.40,,,1.53,,2013-07-11 14:53:00,
2013-07-11 10:04:00,67.0,65.0,30.12,South,187,0.0,11.0,93,0.40,,,1.53,,2013-07-11 15:04:00,
2013-07-11 10:13:00,67.0,65.0,30.12,SSE,158,6.0,7.0,93,0.44,,,1.67,,2013-07-11 15:13:00,
2013-07-11 10:23:00,67.0,65.0,30.08,SE,130,12.0,14.0,94,0.51,,,1.85,,2013-07-11 15:23:00,
2013-07-11 10:45:00,67.0,65.0,30.04,SE,125,14.0,26.0,94,0.45,,,1.89,,2013-07-11 15:45:00,
2013-07-11 10:55:00,68.0,66.0,30.02,SE,124,20.0,25.0,94,0.39,,,1.91,,2013-07-11 15:55:00,
2013-07-11 11:04:00,68.0,66.0,30.02,SE,124,20.0,25.0,94,0.39,,,1.91,,2013-07-11 16:04:00,
2013-07-11 11:13:00,67.0,65.0,30.00,SE,130,9.0,23.0,94,0.25,,,1.91,,2013-07-11 16:13:00,
2013-07-11 11:22:00,68.0,66.0,29.99,SE,136,16.0,22.0,94,0.07,,,1.92,,2013-07-11 16:22:00,
2013-07-11 11:34:00,68.0,66.0,29.99,SE,136,16.0,22.0,94,0.07,,,1.92,,2013-07-11 16:34:00,
2013-07-11 11:45:00,69.0,67.0,30.01,South,169,7.0,22.0,93,0.03,,,1.92,,2013-07-11 16:45:00,
2013-07-11 11:54:00,69.0,66.0,29.99,SSE,156,15.0,21.0,91,0.01,,,1.92,,2013-07-11 16:54:00,
2013-07-11 12:02:00,69.0,66.0,29.99,SSE,156,15.0,21.0,91,0.01,,,1.92,,2013-07-11 17:02:00,
2013-07-11 12:14:00,71.0,68.0,30.00,SE,144,14.0,18.0,90,0.01,,,1.92,,2013-07-11 17:14:00,
2013-07-11 12:25:00,71.0,67.0,30.00,South,183,12.0,14.0,88,0.00,,,1.92,,2013-07-11 17:25:00,
2013-07-11 12:36:00,71.0,67.0,30.00,South,183,12.0,14.0,88,0.00,,,1.92,,2013-07-11 17:36:00,
2013-07-11 12:45:00,72.0,68.0,30.00,SSE,163,9.0,14.0,87,0.00,,,1.92,,2013-07-11 17:45:00,
2013-07-11 12:52:00,75.0,69.0,30.02,SSW,192,4.0,13.0,82,0.00,,,1.92,,2013-07-11 17:52:00,
2013-07-11 13:14:00,76.0,69.0,30.02,SE,140,4.0,12.0,80,0.00,,,1.92,,2013-07-11 18:14:00,
2013-07-11 13:22:00,78.0,69.0,30.01,SE,145,1.0,6.0,75,0.00,,,1.92,,2013-07-11 18:22:00,
2013-07-11 13:35:00,78.0,69.0,30.01,SE,145,1.0,6.0,75,0.00,,,1.92,,2013-07-11 18:35:00,
2013-07-11 13:45:00,79.0,70.0,30.02,SE,140,6.0,11.0,74,0.00,,,1.92,,2013-07-11 18:45:00,
2013-07-11 13:53:00,81.0,73.0,30.01,SSE,150,10.0,15.0,76,0.00,,,1.92,,2013-07-11 18:53:00,
2013-07-11 14:03:00,81.0,73.0,30.01,SSE,150,10.0,15.0,76,0.00,,,1.92,,2013-07-11 19:03:00,
2013-07-11 14:13:00,82.0,74.0,30.01,SE,130,10.0,14.0,77,0.00,,,1.92,,2013-07-11 19:13:00,
2013-07-11 14:23:00,83.0,73.0,29.99,ESE,115,8.0,14.0,72,0.00,,,1.92,,2013-07-11 19:23:00,
2013-07-11 14:36:00,83.0,73.0,29.99,ESE,115,8.0,14.0,72,0.00,,,1.92,,2013-07-11 19:36:00,
2013-07-11 14:44:00,84.0,74.0,29.99,ESE,118,7.0,14.0,71,0.00,,,1.92,,2013-07-11 19:44:00,
2013-07-11 15:25:00,85.0,75.0,29.98,SSE,152,8.0,14.0,72,0.00,,,1.92,,2013-07-11 20:25:00,
2013-07-11 16:04:00,88.0,72.0,29.97,SSE,152,10.0,16.0,60,0.00,,,1.92,,2013-07-11 21:04:00,
2013-07-11 16:23:00,89.0,73.0,29.96,SE,128,10.0,14.0,59,0.00,,,1.92,,2013-07-11 21:23:00,
2013-07-11 16:34:00,89.0,73.0,29.96,SE,128,10.0,14.0,59,0.00,,,1.92,,2013-07-11 21:34:00,
2013-07-11 16:54:00,88.0,72.0,29.96,SE,134,14.0,20.0,59,0.00,,,1.92,,2013-07-11 21:54:00,
2013-07-11 17:04:00,88.0,72.0,29.96,SE,134,14.0,20.0,59,0.00,,,1.92,,2013-07-11 22:04:00,
2013-07-11 18:13:00,87.0,73.0,29.95,SE,140,14.0,19.0,63,0.93,,,2.85,,2013-07-11 23:13:00,
2013-07-11 18:23:00,87.0,71.0,29.94,SE,135,14.0,18.0,59,0.93,,,2.85,,2013-07-11 23:23:00,
2013-07-11 18:34:00,87.0,71.0,29.94,SE,135,14.0,18.0,59,0.93,,,2.85,,2013-07-11 23:34:00,
2013-07-11 18:46:00,87.0,71.0,29.94,SE,140,9.0,18.0,59,0.93,,,2.85,,2013-07-11 23:46:00,
2013-07-11 18:54:00,87.0,72.0,29.93,SE,124,13.0,16.0,61,0.00,,,2.85,,2013-07-11 23:54:00,
2013-07-11 19:03:00,87.0,72.0,29.93,SE,124,13.0,16.0,61,0.00,,,2.85,,2013-07-12 00:03:00,
2013-07-11 19:13:00,86.0,71.0,29.93,SE,140,10.0,17.0,62,0.00,,,2.85,,2013-07-12 00:13:00,
2013-07-11 19:23:00,86.0,72.0,29.93,SE,137,11.0,15.0,64,0.00,,,2.85,,2013-07-12 00:23:00,
2013-07-11 19:43:00,85.0,71.0,29.93,SE,138,12.0,17.0,64,0.00,,,2.85,,2013-07-12 00:43:00,
2013-07-11 19:54:00,85.0,72.0,29.93,SSE,150,10.0,14.0,65,0.00,,,2.85,,2013-07-12 00:54:00,
2013-07-11 20:02:00,85.0,72.0,29.93,SSE,150,10.0,14.0,65,0.00,,,2.85,,2013-07-12 01:02:00,
2013-07-11 20:12:00,84.0,72.0,29.93,SE,137,9.0,13.0,67,0.00,,,2.85,,2013-07-12 01:12:00,
2013-07-11 20:25:00,83.0,71.0,29.93,SE,141,9.0,13.0,68,0.00,,,2.85,,2013-07-12 01:25:00,
2013-07-11 20:35:00,83.0,71.0,29.93,SE,141,9.0,13.0,68,0.00,,,2.85,,2013-07-12 01:35:00,
2013-07-11 20:45:00,81.0,71.0,29.91,SSE,147,5.0,8.0,71,0.00,,,2.85,,2013-07-12 01:45:00,
2013-07-11 20:55:00,80.0,70.0,29.91,SE,141,6.0,8.0,72,0.00,,,2.85,,2013-07-12 01:55:00,
2013-07-11 21:15:00,79.0,70.0,29.92,SSE,150,6.0,9.0,73,0.00,,,2.85,,2013-07-12 02:15:00,
2013-07-11 21:24:00,79.0,70.0,29.91,SE,138,6.0,9.0,73,0.00,,,2.85,,2013-07-12 02:24:00,
2013-07-11 21:35:00,79.0,70.0,29.91,SE,138,6.0,9.0,73,0.00,,,2.85,,2013-07-12 02:35:00,
2013-07-11 21:44:00,78.0,69.0,29.91,SE,136,5.0,9.0,75,0.00,,,2.85,,2013-07-12 02:44:00,
2013-07-11 21:52:00,78.0,69.0,29.92,SE,133,6.0,9.0,75,0.00,,,2.85,,2013-07-12 02:52:00,
2013-07-11 22:02:00,78.0,69.0,29.92,SE,133,6.0,9.0,75,0.00,,,2.85,,2013-07-12 03:02:00,
2013-07-11 22:14:00,78.0,69.0,29.93,SSE,149,6.0,9.0,74,0.00,,,2.85,,2013-07-12 03:14:00,
2013-07-11 22:23:00,78.0,69.0,29.93,SSE,149,8.0,11.0,74,0.00,,,2.85,,2013-07-12 03:23:00,
2013-07-11 22:43:00,78.0,69.0,29.93,SE,146,8.0,12.0,73,0.00,,,2.85,,2013-07-12 03:43:00,
2013-07-11 22:53:00,78.0,69.0,29.93,SE,140,9.0,12.0,73,0.00,,,2.85,,2013-07-12 03:53:00,
2013-07-11 23:01:00,78.0,69.0,29.93,SE,140,9.0,12.0,73,0.00,,,2.85,,2013-07-12 04:01:00,
2013-07-11 23:11:00,78.0,69.0,29.93,SE,140,9.0,13.0,73,0.00,,,2.85,,2013-07-12 04:11:00,
2013-07-11 23:21:00,78.0,67.0,29.94,SE,144,12.0,16.0,70,0.00,,,2.85,,2013-07-12 04:21:00,
2013-07-11 23:32:00,78.0,67.0,29.94,SE,144,12.0,16.0,70,0.00,,,2.85,,2013-07-12 04:32:00,
2013-07-11 23:43:00,78.0,67.0,29.94,SE,141,10.0,13.0,70,0.00,,,2.85,,2013-07-12 04:43:00,
2013-07-11 23:53:00,77.0,66.0,29.94,SE,145,10.0,15.0,69,0.00,,,2.85,,2013-07-12 04:53:00,